Location: Rokycany
(49.7330°N, 13.6000°E)
Time: 08:35:25
(UTC+02:00)

ISS - Pass Details

Date: 26 March 2019
Orbit: 408 x 410 km, 51.6° (Epoch: 21 April)

Event Time Altitude Azimuth Distance (km) Brightness Sun altitude
Rises 19:22:37 0° 245° (WSW) 2,330 0.9 -9.6°
Reaches altitude 10° 19:24:42 10° 244° (WSW) 1,471 -0.2 -9.9°
Maximum altitude 19:27:59 74° 159° (SSE) 429 -3.9 -10.4°
Enters shadow 19:30:49 13° 75° (ENE) 1,281 -1.8 -10.9°
